"Pseudo-MPEC" for P10Sze4

Created 2019 Oct 10 13:07:36 UT using Find_Orb

Click here for an explanation of pseudo-MPECs

 
 Astrometry: 
     P10Sze4  C2019 10 08)#[mi1DRFORAx3J3sU+)*AstrometryD5FTF3`F[/am-9M-h)AxpF51
     P10Sze4  C2019 10 08E1CU_:+obr/c4'Dwh7_[eF$Eredacted;OEwFDciy%p^tfDC(,kQF51
     P10Sze4  C2019 10 0846(VMgclick8lhpk=oC=9,a911w_wA(%85qC#aKY4mK[[uRjIp*UF51
     P10Sze4  C2019 10 08WCABtspcx.xIQU0V4y#:4^5n7adMrhere-H:[)3Qle9DijyS!gR$F51
     P10Sze4 KC2019 10 09'@=q5.Q-o;4A][]fH52gNVVs/0Nv,X]IOLWYumGwP(Zp*I\rRl(%L01
     P10Sze4 KC2019 10 09!8Sx/90lc_t?Q!:DH7O+Ky5O\a'Njfor`P\9(E,8koQ/jJ:kd9mUL01
     P10Sze4 KC2019 10 09hxZA4/explanation#O6,sv60irUvdGEo0i?K4]d(l,LMn\+xLkqL01
     P10Sze4 KC2019 10 09.33855 02 51 26.96 -20 47 09.1    ~A9N7 19.4 RoNEOCP691
     P10Sze4 KC2019 10 09.34761 02 51 26.69 -20 47 22.0    ~A9N7 19.4 RoNEOCP691
     P10Sze4 KC2019 10 09.35435 02 51 26.47 -20 47 32.1    ~A9N7 19.6 RoNEOCP691
     P10Sze4 KC2019 10 10.28055 02 51 00.91 -21 09 44.8    ~AA8b 19.4 RoNEOCP691
     P10Sze4 KC2019 10 10.30409 02 51 00.12 -21 10 18.3    ~AA8b 19.6 RoNEOCP691
     P10Sze4  C2019 10 10.30804 02 51 00.02 -21 10 24.5    ~AA87 19.8 GVNEOCPI52
     P10Sze4  C2019 10 10.31073 02 50 59.93 -21 10 27.9    ~AA87 19.9 GVNEOCPI52
     P10Sze4  C2019 10 10.31342 02 50 59.86 -21 10 31.4    ~AA87 19.8 GVNEOCPI52
     P10Sze4  C2019 10 10.31610 02 50 59.76 -21 10 35.6    ~AA87 20.2 GVNEOCPI52
     P10Sze4 KC2019 10 10.33053 02 50 59.31 -21 10 56.4    ~AA8b 19.2 RoNEOCP691

Station data:
(691) Steward Observatory, Kitt Peak - Spacewatch  (N31.962174 W111.600327)
   US/Arizona.  Observer J. V. Scotti. 0.9-m f/3 reflector + CCD.
(F51) Pan-STARRS 1, Haleakala  (N20.707235 W156.255910)  US/Hawaii.
   Observers N. Primak, A. Schultz, S. Watters, J. Thiel, T. Goggia. Measurer
   PS1 Science Consortium. 1.8-m Ritchey-Chrétien + CCD.
(I52) Steward Observatory, Mt. Lemmon Station  (N32.442547 W110.788920)
   US/Arizona.  Observers T. A. Pruyne, B. M. Africano, E. J. Christensen, G.
   A. Farneth, D. C. Fuls, A. R. Gibbs, A. D. Grauer, H. Groeller, J. A.
   Johnson, R. A. Kowalski, S. M. Larson, G. J. Leonard, D. Rankin, R. L.
   Seaman, F. C. Shelly. 1.0-m reflector + CCD.
(L01) Višnjan Observatory, Tičan  (N45.290900 E13.749300)  Croatia.
   Observers K. Korlević, E. Pettarin. Measurer E. Pettarin. 1.0-m f/2.9
   reflector + CCD.

Orbital elements:  P10Sze4
   Perihelion 2019 Jun 28.757203 +/- 3.5 TT = 18:10:22 (JD 2458663.257203)
Epoch 2019 Oct 10.0 TT = JDT 2458766.5   Earth MOID: 0.7124   AutoNEOCP
M  28.96891461 +/- 0.7              (J2000 ecliptic)
n   0.28059017 +/- 0.0177           Peri.  172.72895 +/- 2.4
a   2.31075770 +/- 0.097            Node   165.75271 +/- 1.1
e   0.2560821 +/- 0.029             Incl.   27.40574 +/- 0.9
P   3.51                   H 17.9   G  0.15   U 10.0  
q 1.71901401 +/- 0.018    Q 2.90250138 +/- 0.18
From 17 observations 2019 Oct. 8-10 (44.5 hr); mean residual 0".22
Residuals in arcseconds: 
191008 F51  .02-  .04-    191009 L01  .26+  .05-    191010 I52  .03+  .37-    
191008 F51  .02-  .01-    191009 691  .04+  .29-    191010 I52  .03-  .09+    
191008 F51  .00   .01-    191009 691  .12+  .00     191010 I52  .19+  .44+    
191008 F51  .03-  .05-    191009 691  .09-  .29-    191010 I52  .00   .08+    
191009 L01  .04+  .20-    191010 691  .14+  .19-    191010 691  .06+  .12-    
191009 L01  .25-  .75+    191010 691  .46-  .10+    

Ephemerides (geocentric):
Date (UTC) HH   RA              Dec         delta   r     elong  mag " sig PA
---- -- -- --  -------------   -----------  ------ ------ -----  --- ---- ---
2019 10 10 13  02 50 53.022   -21 15 49.39  .95724 1.8457 141.3 20.1 .410 128
2019 10 10 14  02 50 51.805   -21 16 48.51  .95731 1.8458 141.3 20.1 .439 125
2019 10 10 15  02 50 50.584   -21 17 47.58  .95738 1.8459 141.4 20.1 .470 123
2019 10 10 16  02 50 49.361   -21 18 46.59  .95745 1.8460 141.4 20.1 .503 121
2019 10 10 17  02 50 48.134   -21 19 45.56  .95752 1.8461 141.4 20.1 .537 120
2019 10 10 18  02 50 46.905   -21 20 44.48  .95759 1.8461 141.4 20.1 .572 118
2019 10 10 19  02 50 45.672   -21 21 43.35  .95767 1.8462 141.4 20.1 .609 117
2019 10 10 20  02 50 44.436   -21 22 42.17  .95774 1.8463 141.4 20.1 .648 115
2019 10 10 21  02 50 43.197   -21 23 40.94  .95781 1.8464 141.4 20.1 .687 114
2019 10 10 22  02 50 41.955   -21 24 39.66  .95788 1.8465 141.4 20.1 .729 113
2019 10 10 23  02 50 40.710   -21 25 38.33  .95796 1.8466 141.4 20.1 .771 112
2019 10 11 00  02 50 39.462   -21 26 36.95  .95803 1.8467 141.4 20.1 .815 111
2019 10 11 01  02 50 38.211   -21 27 35.52  .95811 1.8468 141.4 20.1 .860 111
2019 10 11 02  02 50 36.956   -21 28 34.04  .95818 1.8469 141.4 20.1 .907 110
2019 10 11 03  02 50 35.699   -21 29 32.51  .95826 1.8470 141.4 20.1 .955 109
2019 10 11 04  02 50 34.439   -21 30 30.93  .95833 1.8471 141.4 20.1 1.00 109
2019 10 11 05  02 50 33.175   -21 31 29.30  .95841 1.8472 141.4 20.1 1.05 108
2019 10 11 06  02 50 31.909   -21 32 27.62  .95849 1.8473 141.4 20.1 1.11 108
2019 10 11 07  02 50 30.640   -21 33 25.89  .95856 1.8474 141.5 20.1 1.16 107
2019 10 11 08  02 50 29.367   -21 34 24.10  .95864 1.8475 141.5 20.1 1.21 107
2019 10 11 09  02 50 28.092   -21 35 22.27  .95872 1.8476 141.5 20.1 1.27 106
2019 10 11 10  02 50 26.813   -21 36 20.39  .95879 1.8476 141.5 20.1 1.32 106
2019 10 11 11  02 50 25.532   -21 37 18.45  .95887 1.8477 141.5 20.1 1.38 105
2019 10 11 12  02 50 24.247   -21 38 16.46  .95895 1.8478 141.5 20.1 1.44 105
2019 10 11 13  02 50 22.960   -21 39 14.43  .95903 1.8479 141.5 20.1 1.50 105
2019 10 11 14  02 50 21.669   -21 40 12.34  .95911 1.8480 141.5 20.1 1.56 105
2019 10 11 15  02 50 20.376   -21 41 10.20  .95919 1.8481 141.5 20.1 1.62 104
2019 10 11 16  02 50 19.079   -21 42 08.01  .95927 1.8482 141.5 20.1 1.69 104
2019 10 11 17  02 50 17.780   -21 43 05.76  .95935 1.8483 141.5 20.1 1.75 104
2019 10 11 18  02 50 16.477   -21 44 03.47  .95943 1.8484 141.5 20.1 1.82 104
2019 10 11 19  02 50 15.172   -21 45 01.12  .95951 1.8485 141.5 20.1 1.89 103
2019 10 11 20  02 50 13.863   -21 45 58.73  .95959 1.8486 141.5 20.1 1.96 103
2019 10 11 21  02 50 12.552   -21 46 56.28  .95967 1.8487 141.5 20.1 2.02 103
2019 10 11 22  02 50 11.238   -21 47 53.77  .95975 1.8488 141.5 20.1 2.10 103
2019 10 11 23  02 50 09.921   -21 48 51.22  .95984 1.8489 141.5 20.1 2.17 103
2019 10 12 00  02 50 08.600   -21 49 48.62  .95992 1.8490 141.5 20.1 2.24 103
2019 10 12 01  02 50 07.277   -21 50 45.96  .96000 1.8491 141.6 20.1 2.32 102
2019 10 12 02  02 50 05.951   -21 51 43.25  .96008 1.8492 141.6 20.1 2.39 102
2019 10 12 03  02 50 04.622   -21 52 40.49  .96017 1.8492 141.6 20.1 2.47 102
2019 10 12 04  02 50 03.290   -21 53 37.67  .96025 1.8493 141.6 20.1 2.55 102
2019 10 12 05  02 50 01.955   -21 54 34.80  .96034 1.8494 141.6 20.1 2.62 102
2019 10 12 06  02 50 00.618   -21 55 31.88  .96042 1.8495 141.6 20.1 2.70 102
2019 10 12 07  02 49 59.277   -21 56 28.91  .96050 1.8496 141.6 20.1 2.79 102
2019 10 12 08  02 49 57.933   -21 57 25.89  .96059 1.8497 141.6 20.1 2.87 102
2019 10 12 09  02 49 56.587   -21 58 22.81  .96068 1.8498 141.6 20.1 2.95 102
2019 10 12 10  02 49 55.238   -21 59 19.68  .96076 1.8499 141.6 20.1 3.04 101
2019 10 12 11  02 49 53.885   -22 00 16.49  .96085 1.8500 141.6 20.1 3.12 101
2019 10 12 12  02 49 52.530   -22 01 13.26  .96093 1.8501 141.6 20.1 3.21 101